Home   Weather   Gladbeck   Past weeks

Flag for Germany Past Weather in Gladbeck, North Rhine-Westphalia, Germany — Yesterday and Last 2 Weeks

Now
48 °F

Broken clouds.


Feels Like: 44 °F
Forecast: 35 / 53 °F
Wind: 9 mph from Southwest

Location: Duesseldorf

Current Time: Apr 28, 2017 at 2:36:02 pm

Latest Report: Apr 28, 2017 at 2:20 pm


Visibility: N/A

Pressure: 29.95 "Hg

Humidity: 66%

Dew Point: 37 °F

Location of GladbeckLocation

Past Weather in Gladbeck — Graph

°F

Gladbeck Temperature Yesterday

Maximum temperature yesterday: 54 °F (at 3:20 pm)
Minimum temperature yesterday: 30 °F (at 4:50 am)
Average temperature yesterday: 44 °F

High & Low Weather Summary for the Past Weeks

 TemperatureHumidityPressure
High59 °F (Apr 21, 3:20 pm)100% (Apr 14, 5:50 am)30.63 "Hg (Apr 14, 5:50 am)
Low27 °F (Apr 20, 4:50 am)30% (Apr 20, 5:20 pm)29.71 "Hg (Apr 25, 12:50 am)
Average45 °F68%30.14 "Hg
* Reported Apr 13 1:20 pm — Apr 28 1:20 pm, Gladbeck, Weather by CustomWeather, © 2017

Note: Actual official high and low records may vary slightly from our data, if they occured in-between our weather recording intervals... More about our weather records

Advertising

Gladbeck Weather History for the Previous 24 Hours

Scroll right to see more
 ConditionsComfort  
Time TempWeatherWind HumidityBarometerVisibility
1:20 pm
Fri, Apr 28
48 °FPartly sunny.8 mph66%29.95 "HgN/A
12:50 pm48 °FPartly sunny.8 mph66%29.95 "HgN/A
12:20 pm46 °FBroken clouds.8 mph71%29.95 "HgN/A
11:50 am46 °FBroken clouds.9 mph71%29.95 "HgN/A
11:20 am46 °FPartly sunny.8 mph66%29.95 "HgN/A
10:50 am45 °FPartly sunny.9 mph71%29.95 "HgN/A
10:20 am45 °FPartly sunny.8 mph66%29.95 "HgN/A
9:50 am45 °FPartly sunny.9 mph66%29.95 "HgN/A
9:20 am43 °FPartly sunny.8 mph71%29.95 "HgN/A
8:50 am43 °FBroken clouds.8 mph71%29.95 "HgN/A
8:20 am43 °FBroken clouds.8 mph71%29.95 "HgN/A
7:50 am41 °FPartly sunny.7 mph76%29.95 "HgN/A
7:20 am39 °FPartly sunny.6 mph81%29.95 "HgN/A
6:50 am36 °FScattered clouds.5 mph87%29.95 "HgN/A
6:20 am34 °FSunny.6 mph87%29.95 "Hg10 mi
5:50 am36 °FPassing clouds.3 mph87%29.95 "HgN/A
5:20 am34 °FClear.5 mph87%29.95 "Hg10 mi
4:50 am34 °FClear.3 mph93%29.95 "Hg10 mi
4:20 am34 °FClear.2 mph93%29.95 "Hg10 mi
3:50 am34 °FClear.1 mph93%29.95 "Hg10 mi
3:20 am36 °FClear.2 mph93%29.98 "Hg10 mi
2:50 am36 °FClear.2 mph93%29.98 "Hg10 mi
2:20 am37 °FClear.2 mph87%29.98 "Hg10 mi
1:50 am39 °FClear.5 mph81%29.98 "Hg10 mi
1:20 am41 °FPassing clouds.3 mph81%29.98 "HgN/A
12:50 am41 °FClear.5 mph81%29.98 "Hg10 mi
12:20 am43 °FClear.3 mph76%29.98 "Hg10 mi
11:50 pm
Thu, Apr 27
43 °FPassing clouds.6 mph76%29.98 "HgN/A
11:20 pm45 °FPassing clouds.3 mph71%29.98 "HgN/A
10:50 pm45 °FClear.2 mph71%30.01 "Hg10 mi
10:20 pm46 °FClear.6 mph66%30.01 "Hg10 mi
9:50 pm46 °FClear.5 mph66%30.01 "Hg10 mi
9:20 pm46 °FClear.6 mph66%30.01 "Hg10 mi
8:50 pm46 °FClear.6 mph62%30.01 "Hg10 mi
8:20 pm46 °FSunny.7 mph62%29.98 "Hg10 mi
7:50 pm48 °FScattered clouds.12 mph54%29.98 "HgN/A
7:20 pm50 °FScattered clouds.6 mph54%29.98 "HgN/A
6:50 pm48 °FScattered showers. Scattered clouds.12 mph58%29.98 "HgN/A
6:20 pm48 °FScattered showers. Scattered clouds.14 mph58%29.98 "HgN/A
5:50 pm52 °FScattered showers. Scattered clouds.15 mph44%29.98 "HgN/A
5:20 pm52 °FScattered clouds.9 mph38%29.98 "HgN/A
4:50 pm54 °FPassing clouds.10 mph38%29.98 "HgN/A
4:20 pm54 °FScattered clouds.12 mph35%29.98 "HgN/A
3:50 pm54 °FScattered showers. Scattered clouds.7 mph41%29.98 "HgN/A
3:20 pm54 °FScattered showers. Scattered clouds.9 mph38%30.01 "HgN/A
2:50 pm52 °FPassing clouds.8 mph41%30.01 "HgN/A
2:20 pm52 °FPassing clouds.9 mph44%30.01 "HgN/A
Weather by CustomWeather, © 2017

See weather overviewHow to use our weather pages